This is the latest recevied weather packets stored in our database for station/object W2IRT. If no packets are shown the sender has not sent any weather packets the latest 10 day(s).
| Time | Temp. | Humidity | Pressure | Rain* | Wind** | Luminosity | Snow |
|---|---|---|---|---|---|---|---|
| 1777839616 | 15.56° C | 26% | 1010.1 hPa | 0 mm | - | - | - |
| 1777839316 | 15.56° C | 27% | 1009.9 hPa | 0 mm | - | - | - |
| 1777839016 | 15° C | 27% | 1010.1 hPa | 0 mm | - | - | - |
| 1777838716 | 15° C | 31% | 1010.2 hPa | 0 mm | - | - | - |
| 1777838417 | 15° C | 28% | 1010.2 hPa | 0 mm | - | - | - |
| 1777838116 | 15° C | 27% | 1010.2 hPa | 0 mm | - | - | - |
| 1777837816 | 15.56° C | 29% | 1010.2 hPa | 0 mm | - | - | - |
| 1777837516 | 15° C | 29% | 1010.3 hPa | 0 mm | - | - | - |
| 1777837216 | 15° C | 31% | 1010.4 hPa | 0 mm | - | - | - |
| 1777836916 | 15° C | 30% | 1010.3 hPa | 0 mm | - | - | - |
| 1777836616 | 15° C | 27% | 1010.5 hPa | 0 mm | - | - | - |
| 1777836316 | 15° C | 27% | 1010.5 hPa | 0 mm | - | - | - |
| 1777836016 | 14.44° C | 29% | 1010.5 hPa | 0 mm | - | - | - |
| 1777835716 | 14.44° C | 32% | 1010.5 hPa | 0 mm | - | - | - |
| 1777835416 | 14.44° C | 28% | 1010.5 hPa | 0 mm | - | - | - |
| 1777835116 | 14.44° C | 30% | 1010.6 hPa | 0 mm | - | - | - |
| 1777834816 | 14.44° C | 29% | 1010.5 hPa | 0 mm | - | - | - |
| 1777834516 | 14.44° C | 30% | 1010.6 hPa | 0 mm | - | - | - |
| 1777834216 | 14.44° C | 32% | 1010.8 hPa | 0 mm | - | - | - |
| 1777833916 | 14.44° C | 30% | 1010.7 hPa | 0 mm | - | - | - |
| 1777833617 | 13.89° C | 29% | 1010.8 hPa | 0 mm | - | - | - |
| 1777833316 | 13.89° C | 31% | 1010.8 hPa | 0 mm | - | - | - |
| 1777833016 | 13.89° C | 32% | 1010.8 hPa | 0 mm | - | - | - |
| 1777832716 | 13.89° C | 30% | 1010.8 hPa | 0 mm | - | - | - |
| 1777832416 | 13.89° C | 31% | 1010.8 hPa | 0 mm | - | - | - |
* Rain latest hour (hover to see other rain measurements)
** Current wind speed in m/s (hover to see current wind gust speed)